Posição BattleTag® Nível Tempo gasto Completo
1. Raxxanterax 52 1m 45.949s 30/03/2020 21:36:45
BdoN 52 1m 45.949s 30/03/2020 21:36:45
Aufgelauert 52 1m 45.949s 30/03/2020 21:36:45
austinsmith 52 1m 45.949s 30/03/2020 21:36:45
5. Crookedshank 52 2m 33.200s 31/03/2020 15:01:14
Anigagan 52 2m 33.200s 31/03/2020 15:01:14
TJohn35 52 2m 33.200s 31/03/2020 15:01:14
JAD 52 2m 33.200s 31/03/2020 15:01:14
9. Solan 52 2m 37.000s 31/03/2020 02:51:55
AEON 52 2m 37.000s 31/03/2020 02:51:55
Kaisolin 52 2m 37.000s 31/03/2020 02:51:55
StallerDART 52 2m 37.000s 31/03/2020 02:51:55
13. Buzzard 52 2m 37.883s 31/03/2020 02:32:47
Ekrub 52 2m 37.883s 31/03/2020 02:32:47
LordMarshall 52 2m 37.883s 31/03/2020 02:32:47
Gramosh 52 2m 37.883s 31/03/2020 02:32:47
17. Nechtan 52 2m 39.100s 30/03/2020 22:00:48
bCUB 52 2m 39.100s 30/03/2020 22:00:48
Philmahooter 52 2m 39.100s 30/03/2020 22:00:48
POPX 52 2m 39.100s 30/03/2020 22:00:48
21. MeisterJing 52 2m 39.183s 31/03/2020 02:35:11
purpleowl 52 2m 39.183s 31/03/2020 02:35:11
monjinn 52 2m 39.183s 31/03/2020 02:35:11
WorkWorkWork 52 2m 39.183s 31/03/2020 02:35:11
25. ZFrenetiCZ 52 2m 41.200s 31/03/2020 03:05:26
Sanakem 52 2m 41.200s 31/03/2020 03:05:26
Ragnak 52 2m 41.200s 31/03/2020 03:05:26
ColosuS 52 2m 41.200s 31/03/2020 03:05:26
29. Itsokimhere 52 2m 41.366s 01/04/2020 01:39:43
Pillzze 52 2m 41.366s 01/04/2020 01:39:43
XizaX 52 2m 41.366s 01/04/2020 01:39:43
DePoRtEd 52 2m 41.366s 01/04/2020 01:39:43
33. dpalmer 52 2m 44.133s 31/03/2020 01:57:48
LUCKY 52 2m 44.133s 31/03/2020 01:57:48
NDaRoO 52 2m 44.133s 31/03/2020 01:57:48
princessbear 52 2m 44.133s 31/03/2020 01:57:48
37. MistaJoey 52 2m 46.516s 02/04/2020 01:03:21
Zephers 52 2m 46.516s 02/04/2020 01:03:21
DarkAngel 52 2m 46.516s 02/04/2020 01:03:21
HellsxGod 52 2m 46.516s 02/04/2020 01:03:21
41. Gimpzor 52 2m 53.883s 31/03/2020 08:10:36
Bhaekthez 52 2m 53.883s 31/03/2020 08:10:36
ErgoSiphon 52 2m 53.883s 31/03/2020 08:10:36
Ekyro 52 2m 53.883s 31/03/2020 08:10:36
45. Shibbs 52 2m 54.416s 31/03/2020 01:58:53
HellBent 52 2m 54.416s 31/03/2020 01:58:53
Davmorn 52 2m 54.416s 31/03/2020 01:58:53
RezTheReaper 52 2m 54.416s 31/03/2020 01:58:53
49. Kardona 52 2m 54.433s 31/03/2020 00:59:11
Greaserken 52 2m 54.433s 31/03/2020 00:59:11
Kevooon 52 2m 54.433s 31/03/2020 00:59:11
Iskander 52 2m 54.433s 31/03/2020 00:59:11
53. ǁǁǁTȈƁǁǁǁ 52 2m 54.566s 02/04/2020 03:23:01
Shalbeen187 52 2m 54.566s 02/04/2020 03:23:01
Mbb3 52 2m 54.566s 02/04/2020 03:23:01
SexyDuck 52 2m 54.566s 02/04/2020 03:23:01
57. DevilsNight 52 2m 55.500s 31/03/2020 02:01:05
GARYCHIOS 52 2m 55.500s 31/03/2020 02:01:05
Maverick 52 2m 55.500s 31/03/2020 02:01:05
Cashmoney 52 2m 55.500s 31/03/2020 02:01:05
61. DemonzNJ 52 2m 56.649s 31/03/2020 23:59:51
Skrillamanch 52 2m 56.649s 31/03/2020 23:59:51
Nubby 52 2m 56.649s 31/03/2020 23:59:51
Ethereal 52 2m 56.649s 31/03/2020 23:59:51
65. MrZEE 52 2m 57.400s 01/04/2020 10:31:23
MuGG1N 52 2m 57.400s 01/04/2020 10:31:23
ElderTitan 52 2m 57.400s 01/04/2020 10:31:23
Rhal 52 2m 57.400s 01/04/2020 10:31:23
69. Jainu 52 2m 57.966s 01/04/2020 13:02:21
Gio 52 2m 57.966s 01/04/2020 13:02:21
dashh 52 2m 57.966s 01/04/2020 13:02:21
jffk47 52 2m 57.966s 01/04/2020 13:02:21
73. Skishma 52 2m 58.649s 30/03/2020 23:46:22
Magravine 52 2m 58.649s 30/03/2020 23:46:22
Pixma 52 2m 58.649s 30/03/2020 23:46:22
Volklas 52 2m 58.649s 30/03/2020 23:46:22
77. Defiant 52 2m 59.750s 01/04/2020 02:41:03
DarkSouls 52 2m 59.750s 01/04/2020 02:41:03
Deliverance 52 2m 59.750s 01/04/2020 02:41:03
platoss 52 2m 59.750s 01/04/2020 02:41:03
81. bigGmoney 52 2m 59.933s 31/03/2020 03:06:12
omoz 52 2m 59.933s 31/03/2020 03:06:12
Wesley 52 2m 59.933s 31/03/2020 03:06:12
Recondoc 52 2m 59.933s 31/03/2020 03:06:12
85. Mordlen 52 3m 0.550s 30/03/2020 21:27:33
sacchetto 52 3m 0.550s 30/03/2020 21:27:33
rest 52 3m 0.550s 30/03/2020 21:27:33
VicKo 52 3m 0.550s 30/03/2020 21:27:33
89. Gor 52 3m 1.100s 30/03/2020 21:25:22
Etlich 52 3m 1.100s 30/03/2020 21:25:22
Unholy 52 3m 1.100s 30/03/2020 21:25:22
i2old2run 52 3m 1.100s 30/03/2020 21:25:22
93. Trunks 52 3m 2.666s 01/04/2020 02:34:22
LiquidBlue 52 3m 2.666s 01/04/2020 02:34:22
FullOfRage 52 3m 2.666s 01/04/2020 02:34:22
PhyxiusPrime 52 3m 2.666s 01/04/2020 02:34:22
97. HotRod 52 3m 3.083s 31/03/2020 02:15:31
OldHolmes 52 3m 3.083s 31/03/2020 02:15:31
Bronst 52 3m 3.083s 31/03/2020 02:15:31
Hiso 52 3m 3.083s 31/03/2020 02:15:31
101. Zypher 52 3m 3.350s 30/03/2020 22:18:59
Musashi 52 3m 3.350s 30/03/2020 22:18:59
DropTheMike 52 3m 3.350s 30/03/2020 22:18:59
Ackdogg 52 3m 3.350s 30/03/2020 22:18:59
105. aka 52 3m 3.833s 30/03/2020 23:23:39
FizzyElf 52 3m 3.833s 30/03/2020 23:23:39
Iggy82 52 3m 3.833s 30/03/2020 23:23:39
Russad 52 3m 3.833s 30/03/2020 23:23:39
109. Aelerathe 52 3m 4.150s 01/04/2020 08:50:13
Dguy77 52 3m 4.150s 01/04/2020 08:50:13
Jennalise 52 3m 4.150s 01/04/2020 08:50:13
LoLCuddlebun 52 3m 4.150s 01/04/2020 08:50:13
113. Barfy 52 3m 4.983s 30/03/2020 22:53:10
PaBarr 52 3m 4.983s 30/03/2020 22:53:10
Corrado 52 3m 4.983s 30/03/2020 22:53:10
TxMike 52 3m 4.983s 30/03/2020 22:53:10
117. rumourlore 52 3m 6.133s 31/03/2020 02:59:37
Stuwee 52 3m 6.133s 31/03/2020 02:59:37
ДикаяЯрость 52 3m 6.133s 31/03/2020 02:59:37
Repir 52 3m 6.133s 31/03/2020 02:59:37
121. TwinFlames 52 3m 6.466s 31/03/2020 03:19:28
ELPOGO 52 3m 6.466s 31/03/2020 03:19:28
Daddy 52 3m 6.466s 31/03/2020 03:19:28
GoddessKOI 52 3m 6.466s 31/03/2020 03:19:28
125. Unholy 52 3m 6.633s 01/04/2020 21:42:19
BlackKitty 52 3m 6.633s 01/04/2020 21:42:19
Gazak 52 3m 6.633s 01/04/2020 21:42:19
RedBeard 52 3m 6.633s 01/04/2020 21:42:19
129. stingray21 52 3m 7.550s 30/03/2020 23:14:25
Northsask 52 3m 7.550s 30/03/2020 23:14:25
Ampel 52 3m 7.550s 30/03/2020 23:14:25
Uldschool 52 3m 7.550s 30/03/2020 23:14:25
133. GrumpyPants 52 3m 7.933s 30/03/2020 22:45:00
Akhias 52 3m 7.933s 30/03/2020 22:45:00
Wannagetspot 52 3m 7.933s 30/03/2020 22:45:00
Alexpre 52 3m 7.933s 30/03/2020 22:45:00
137. DrkDragn 52 3m 8.216s 31/03/2020 00:22:07
Fox 52 3m 8.216s 31/03/2020 00:22:07
Warlockez 52 3m 8.216s 31/03/2020 00:22:07
Mindtruck 52 3m 8.216s 31/03/2020 00:22:07
141. aTurdSandwic 52 3m 9.316s 31/03/2020 16:47:13
NubianxQueen 52 3m 9.316s 31/03/2020 16:47:13
aGiantDewsh 52 3m 9.316s 31/03/2020 16:47:13
PvPwnU 52 3m 9.316s 31/03/2020 16:47:13
145. Mishafriend 52 3m 9.733s 30/03/2020 22:53:45
Alfakezinho 52 3m 9.733s 30/03/2020 22:53:45
Ronielisson 52 3m 9.733s 30/03/2020 22:53:45
Sony 52 3m 9.733s 30/03/2020 22:53:45
149. andreprk 52 3m 9.900s 30/03/2020 21:44:55
Pagotto 52 3m 9.900s 30/03/2020 21:44:55
PKa 52 3m 9.900s 30/03/2020 21:44:55
MoH 52 3m 9.900s 30/03/2020 21:44:55
153. Mathris 52 3m 10.033s 31/03/2020 00:48:50
Plant 52 3m 10.033s 31/03/2020 00:48:50
Geodude 52 3m 10.033s 31/03/2020 00:48:50
Azeneth 52 3m 10.033s 31/03/2020 00:48:50
157. NeverEnder 52 3m 10.066s 01/04/2020 02:43:20
MasterReyes 52 3m 10.066s 01/04/2020 02:43:20
Scourage 52 3m 10.066s 01/04/2020 02:43:20
BigDaddyJ 52 3m 10.066s 01/04/2020 02:43:20
161. Jeff2009 52 3m 10.666s 31/03/2020 13:00:10
Wratic 52 3m 10.666s 31/03/2020 13:00:10
chickenking 52 3m 10.666s 31/03/2020 13:00:10
Zwith 52 3m 10.666s 31/03/2020 13:00:10
165. DizzyBags19 52 3m 10.833s 01/04/2020 07:26:08
agrophoba 52 3m 10.833s 01/04/2020 07:26:08
BazookaTooth 52 3m 10.833s 01/04/2020 07:26:08
StarScream 52 3m 10.833s 01/04/2020 07:26:08
169. Bigmike619 52 3m 11.116s 30/03/2020 23:05:31
JiangXiLaoMo 52 3m 11.116s 30/03/2020 23:05:31
MetaPhoenix 52 3m 11.116s 30/03/2020 23:05:31
pit 52 3m 11.116s 30/03/2020 23:05:31
173. TrisBarbaro 52 3m 11.700s 01/04/2020 21:55:05
Alucard 52 3m 11.700s 01/04/2020 21:55:05
Rianol 52 3m 11.700s 01/04/2020 21:55:05
MightyFélix 52 3m 11.700s 01/04/2020 21:55:05
177. moshgoddess 52 3m 12.216s 01/04/2020 05:24:43
Crisis 52 3m 12.216s 01/04/2020 05:24:43
Turx 52 3m 12.216s 01/04/2020 05:24:43
Rholder0 52 3m 12.216s 01/04/2020 05:24:43
181. Apocalips 52 3m 13.183s 01/04/2020 00:07:06
Lulão 52 3m 13.183s 01/04/2020 00:07:06
Skalovsk 52 3m 13.183s 01/04/2020 00:07:06
KingTrash 52 3m 13.183s 01/04/2020 00:07:06
185. ODRACIRLR740 52 3m 13.799s 31/03/2020 01:15:24
Hopper6 52 3m 13.799s 31/03/2020 01:15:24
Phrytar 52 3m 13.799s 31/03/2020 01:15:24
Snn 52 3m 13.799s 31/03/2020 01:15:24
189. Aetha 52 3m 14.583s 31/03/2020 08:01:06
Hoffy 52 3m 14.583s 31/03/2020 08:01:06
ThePoet 52 3m 14.583s 31/03/2020 08:01:06
BigJohnasty 52 3m 14.583s 31/03/2020 08:01:06
193. PyroArab 52 3m 14.816s 31/03/2020 04:34:45
Jack 52 3m 14.816s 31/03/2020 04:34:45
Wicked808 52 3m 14.816s 31/03/2020 04:34:45
ChazBently 52 3m 14.816s 31/03/2020 04:34:45
197. dytross 52 3m 14.816s 31/03/2020 22:20:17
naluconti 52 3m 14.816s 31/03/2020 22:20:17
tdgnishimura 52 3m 14.816s 31/03/2020 22:20:17
Mtwtr 52 3m 14.816s 31/03/2020 22:20:17
201. Rowdydevil11 52 3m 15.166s 31/03/2020 00:00:21
Veldruk 52 3m 15.166s 31/03/2020 00:00:21
XraidedXX 52 3m 15.166s 31/03/2020 00:00:21
DEGUELLO 52 3m 15.166s 31/03/2020 00:00:21
205. Basman 52 3m 15.283s 31/03/2020 10:01:52
Porkie 52 3m 15.283s 31/03/2020 10:01:52
Bogart 52 3m 15.283s 31/03/2020 10:01:52
jeyps 52 3m 15.283s 31/03/2020 10:01:52
209. Locutus 52 3m 15.566s 30/03/2020 22:42:18
ohreallyeddi 52 3m 15.566s 30/03/2020 22:42:18
Ruziak 52 3m 15.566s 30/03/2020 22:42:18
neaf 52 3m 15.566s 30/03/2020 22:42:18
213. shooks 52 3m 15.733s 01/04/2020 06:12:31
buyBITCORN 52 3m 15.733s 01/04/2020 06:12:31
kottonmouth 52 3m 15.733s 01/04/2020 06:12:31
McMutton 52 3m 15.733s 01/04/2020 06:12:31
217. Finn 52 3m 16.166s 31/03/2020 08:26:31
Tarmona 52 3m 16.166s 31/03/2020 08:26:31
L0LLYPOPLOVE 52 3m 16.166s 31/03/2020 08:26:31
BlackPlague 52 3m 16.166s 31/03/2020 08:26:31
221. Creed 52 3m 16.816s 30/03/2020 22:30:15
FilthyYo 52 3m 16.816s 30/03/2020 22:30:15
nikkolokoy 52 3m 16.816s 30/03/2020 22:30:15
YouRopeIRope 52 3m 16.816s 30/03/2020 22:30:15
225. GR1MxREAPER 52 3m 16.833s 31/03/2020 12:55:06
UNFORSAK3N 52 3m 16.833s 31/03/2020 12:55:06
Titansedge 52 3m 16.833s 31/03/2020 12:55:06
Aizentzu 52 3m 16.833s 31/03/2020 12:55:06
229. Raizen 52 3m 17.533s 31/03/2020 09:49:49
choco 52 3m 17.533s 31/03/2020 09:49:49
bubblegum 52 3m 17.533s 31/03/2020 09:49:49
twintastic 52 3m 17.533s 31/03/2020 09:49:49
233. benzawal 52 3m 17.783s 31/03/2020 00:42:14
kiyu 52 3m 17.783s 31/03/2020 00:42:14
Chinkster 52 3m 17.783s 31/03/2020 00:42:14
BlackCorona 52 3m 17.783s 31/03/2020 00:42:14
237. generalpeper 52 3m 18.366s 30/03/2020 22:49:30
Chupathingy 52 3m 18.366s 30/03/2020 22:49:30
TheDogGod 52 3m 18.366s 30/03/2020 22:49:30
Sou 52 3m 18.366s 30/03/2020 22:49:30
241. Salierno3 52 3m 18.649s 31/03/2020 04:41:25
Silencersam 52 3m 18.649s 31/03/2020 04:41:25
GhostDragon 52 3m 18.649s 31/03/2020 04:41:25
Scoobith666 52 3m 18.649s 31/03/2020 04:41:25
245. Raven 52 3m 18.983s 31/03/2020 17:12:25
Jalara 52 3m 18.983s 31/03/2020 17:12:25
TheRealEWIG 52 3m 18.983s 31/03/2020 17:12:25
Elysia 52 3m 18.983s 31/03/2020 17:12:25
249. Angexina 52 3m 21.216s 31/03/2020 01:33:30
CanadianWaly 52 3m 21.216s 31/03/2020 01:33:30
PigTrickster 52 3m 21.216s 31/03/2020 01:33:30
ob1982 52 3m 21.216s 31/03/2020 01:33:30
253. Serefina 52 3m 21.716s 01/04/2020 02:57:03
MrGhibbsy 52 3m 21.716s 01/04/2020 02:57:03
Sorcereo 52 3m 21.716s 01/04/2020 02:57:03
Nighthreat 52 3m 21.716s 01/04/2020 02:57:03
257. skarecrow 52 3m 22.383s 30/03/2020 23:07:52
RIPsource 52 3m 22.383s 30/03/2020 23:07:52
SLD96 52 3m 22.383s 30/03/2020 23:07:52
romualdo 52 3m 22.383s 30/03/2020 23:07:52
261. Fenrae 52 3m 22.416s 01/04/2020 03:47:54
UsuiTakumi 52 3m 22.416s 01/04/2020 03:47:54
BetaVirus 52 3m 22.416s 01/04/2020 03:47:54
j2spears 52 3m 22.416s 01/04/2020 03:47:54
265. Mindblades 52 3m 22.449s 01/04/2020 12:37:50
YILIN 52 3m 22.449s 01/04/2020 12:37:50
Tao 52 3m 22.449s 01/04/2020 12:37:50
jayden 52 3m 22.449s 01/04/2020 12:37:50
269. RAYZORE 52 3m 22.550s 30/03/2020 22:57:13
SAClass 52 3m 22.550s 30/03/2020 22:57:13
aimveinskull 52 3m 22.550s 30/03/2020 22:57:13
Rayzore 52 3m 22.550s 30/03/2020 22:57:13
273. Loki 52 3m 22.716s 31/03/2020 02:50:10
OLDMAN 52 3m 22.716s 31/03/2020 02:50:10
Xabro 52 3m 22.716s 31/03/2020 02:50:10
gbmansir 52 3m 22.716s 31/03/2020 02:50:10
277. Propaine 52 3m 23.166s 31/03/2020 15:59:52
NipsTweaker 52 3m 23.166s 31/03/2020 15:59:52
Taeyn 52 3m 23.166s 31/03/2020 15:59:52
RigerPlz 52 3m 23.166s 31/03/2020 15:59:52
281. RealDeal 52 3m 23.899s 31/03/2020 01:34:05
kodyrrrrrrom 52 3m 23.899s 31/03/2020 01:34:05
Winforce 52 3m 23.899s 31/03/2020 01:34:05
BeansChef 52 3m 23.899s 31/03/2020 01:34:05
285. Teddy 52 3m 24.316s 01/04/2020 03:45:58
NCreature 52 3m 24.316s 01/04/2020 03:45:58
Pablo17 52 3m 24.316s 01/04/2020 03:45:58
Shyurem 52 3m 24.316s 01/04/2020 03:45:58
289. Shalex 52 3m 24.616s 02/04/2020 00:48:48
GERO 52 3m 24.616s 02/04/2020 00:48:48
PizzaBoy 52 3m 24.616s 02/04/2020 00:48:48
Lenox 52 3m 24.616s 02/04/2020 00:48:48
293. Frymonk 52 3m 25.516s 31/03/2020 03:10:28
Gimpnoodle 52 3m 25.516s 31/03/2020 03:10:28
Evillpope 52 3m 25.516s 31/03/2020 03:10:28
Pocketsand 52 3m 25.516s 31/03/2020 03:10:28
297. Tichoux 52 3m 25.766s 31/03/2020 20:15:20
KCeratops 52 3m 25.766s 31/03/2020 20:15:20
TristramHero 52 3m 25.766s 31/03/2020 20:15:20
Shihan 52 3m 25.766s 31/03/2020 20:15:20
301. LeFranck 52 3m 26.000s 31/03/2020 03:00:29
MARS 52 3m 26.000s 31/03/2020 03:00:29
BladeRaven33 52 3m 26.000s 31/03/2020 03:00:29
Bentz 52 3m 26.000s 31/03/2020 03:00:29
305. BlacKnight 52 3m 26.166s 31/03/2020 15:57:55
echotoo 52 3m 26.166s 31/03/2020 15:57:55
Spark 52 3m 26.166s 31/03/2020 15:57:55
Beckii 52 3m 26.166s 31/03/2020 15:57:55
309. grimre 52 3m 26.266s 31/03/2020 01:52:52
Blondewitch 52 3m 26.266s 31/03/2020 01:52:52
Ramsaq 52 3m 26.266s 31/03/2020 01:52:52
Catch22 52 3m 26.266s 31/03/2020 01:52:52
313. ChaoticPower 52 3m 26.416s 31/03/2020 01:05:22
Insult 52 3m 26.416s 31/03/2020 01:05:22
Guttwrot1976 52 3m 26.416s 31/03/2020 01:05:22
Parrish1932 52 3m 26.416s 31/03/2020 01:05:22
317. Zandercade81 52 3m 26.899s 31/03/2020 14:05:11
Inferno 52 3m 26.899s 31/03/2020 14:05:11
Stpetesoulja 52 3m 26.899s 31/03/2020 14:05:11
Reuben 52 3m 26.899s 31/03/2020 14:05:11
321. DemonicAngel 52 3m 27.200s 31/03/2020 21:44:11
Pluminator 52 3m 27.200s 31/03/2020 21:44:11
KC400 52 3m 27.200s 31/03/2020 21:44:11
JasonClose 52 3m 27.200s 31/03/2020 21:44:11
325. Baconslayer 52 3m 27.700s 31/03/2020 06:59:17
RocketManDaK 52 3m 27.700s 31/03/2020 06:59:17
Murky 52 3m 27.700s 31/03/2020 06:59:17
Durza 52 3m 27.700s 31/03/2020 06:59:17
329. ChimyChobo 52 3m 28.500s 01/04/2020 05:42:36
Sevmachine 52 3m 28.500s 01/04/2020 05:42:36
BrotherAhrim 52 3m 28.500s 01/04/2020 05:42:36
TrueBlue 52 3m 28.500s 01/04/2020 05:42:36
333. Warlord920 52 3m 28.533s 31/03/2020 00:02:54
Mike 52 3m 28.533s 31/03/2020 00:02:54
Omgthedevil 52 3m 28.533s 31/03/2020 00:02:54
JeeJee 52 3m 28.533s 31/03/2020 00:02:54
337. Acien 52 3m 29.049s 31/03/2020 23:28:32
Circenn 52 3m 29.049s 31/03/2020 23:28:32
HBMNID 52 3m 29.049s 31/03/2020 23:28:32
roarsofblood 52 3m 29.049s 31/03/2020 23:28:32
341. Azazel 52 3m 29.466s 31/03/2020 01:08:39
pajama 52 3m 29.466s 31/03/2020 01:08:39
JivetimeJimi 52 3m 29.466s 31/03/2020 01:08:39
Diaboy 52 3m 29.466s 31/03/2020 01:08:39
345. NapoleanG 52 3m 30.883s 01/04/2020 18:06:01
CJD 52 3m 30.883s 01/04/2020 18:06:01
Stughi 52 3m 30.883s 01/04/2020 18:06:01
Ejnull 52 3m 30.883s 01/04/2020 18:06:01
349. Mathael 52 3m 32.149s 31/03/2020 14:59:53
Diablo 52 3m 32.149s 31/03/2020 14:59:53
Sh1pper 52 3m 32.149s 31/03/2020 14:59:53
naya 52 3m 32.149s 31/03/2020 14:59:53
353. Magicfeller 52 3m 32.450s 02/04/2020 02:56:35
葫蘿啵 52 3m 32.450s 02/04/2020 02:56:35
Higgle 52 3m 32.450s 02/04/2020 02:56:35
Greekfreak13 52 3m 32.450s 02/04/2020 02:56:35
357. Ogre162 52 3m 32.500s 31/03/2020 05:48:30
Cyndarian714 52 3m 32.500s 31/03/2020 05:48:30
KillEMALL 52 3m 32.500s 31/03/2020 05:48:30
DvJaeger 52 3m 32.500s 31/03/2020 05:48:30
361. Snakes 52 3m 32.966s 01/04/2020 01:20:14
Cwolf 52 3m 32.966s 01/04/2020 01:20:14
Zero 52 3m 32.966s 01/04/2020 01:20:14
saintones 52 3m 32.966s 01/04/2020 01:20:14
365. Wetwet 52 3m 33.433s 31/03/2020 15:19:01
Verhidien 52 3m 33.433s 31/03/2020 15:19:01
SuperNinja 52 3m 33.433s 31/03/2020 15:19:01
Antithesis 52 3m 33.433s 31/03/2020 15:19:01
369. Ziev 52 3m 33.916s 02/04/2020 03:38:44
Wolverine 52 3m 33.916s 02/04/2020 03:38:44
Huzzinkani 52 3m 33.916s 02/04/2020 03:38:44
NinjaMax 52 3m 33.916s 02/04/2020 03:38:44
373. Wendywuu 52 3m 34.083s 30/03/2020 22:38:07
374. Alphared 52 3m 34.183s 31/03/2020 16:21:17
RAAAR 52 3m 34.183s 31/03/2020 16:21:17
fiddler 52 3m 34.183s 31/03/2020 16:21:17
rutledge 52 3m 34.183s 31/03/2020 16:21:17
378. ToxGerard 52 3m 34.450s 31/03/2020 04:39:23
Bulma 52 3m 34.450s 31/03/2020 04:39:23
nmw2006 52 3m 34.450s 31/03/2020 04:39:23
iNdrAWn 52 3m 34.450s 31/03/2020 04:39:23
382. Angr 52 3m 34.499s 31/03/2020 02:06:26
Sinner 52 3m 34.499s 31/03/2020 02:06:26
Willowlotus 52 3m 34.499s 31/03/2020 02:06:26
Cruzzac 52 3m 34.499s 31/03/2020 02:06:26
386. KMFK 52 3m 34.683s 30/03/2020 23:24:04
Sacwiffer 52 3m 34.683s 30/03/2020 23:24:04
Aeroace17 52 3m 34.683s 30/03/2020 23:24:04
BigPapa 52 3m 34.683s 30/03/2020 23:24:04
390. MrToken 52 3m 35.433s 31/03/2020 11:27:59
DRVGON 52 3m 35.433s 31/03/2020 11:27:59
Wee 52 3m 35.433s 31/03/2020 11:27:59
earth 52 3m 35.433s 31/03/2020 11:27:59
394. deathknight 52 3m 35.666s 31/03/2020 16:29:52
adogv90 52 3m 35.666s 31/03/2020 16:29:52
Steele 52 3m 35.666s 31/03/2020 16:29:52
SilentStorm 52 3m 35.666s 31/03/2020 16:29:52
398. Yikes 52 3m 36.250s 31/03/2020 22:27:05
IIIDARTHIII 52 3m 36.250s 31/03/2020 22:27:05
xBlessedSoul 52 3m 36.250s 31/03/2020 22:27:05
wildone 52 3m 36.250s 31/03/2020 22:27:05
402. LazyTurtle 52 3m 36.549s 31/03/2020 00:13:44
LordWex 52 3m 36.549s 31/03/2020 00:13:44
darkflame 52 3m 36.549s 31/03/2020 00:13:44
Alucard 52 3m 36.549s 31/03/2020 00:13:44
406. holyhalfdead 52 3m 36.616s 30/03/2020 23:46:25
Seraa 52 3m 36.616s 30/03/2020 23:46:25
Voxum 52 3m 36.616s 30/03/2020 23:46:25
Chaz 52 3m 36.616s 30/03/2020 23:46:25
410. nerdybutcute 52 3m 37.066s 31/03/2020 01:21:28
TommyD 52 3m 37.066s 31/03/2020 01:21:28
WarHAWKx59 52 3m 37.066s 31/03/2020 01:21:28
DaltonBoyer 52 3m 37.066s 31/03/2020 01:21:28
414. Ludovic1984 52 3m 37.283s 31/03/2020 13:32:06
NbornPhoenix 52 3m 37.283s 31/03/2020 13:32:06
karlos 52 3m 37.283s 31/03/2020 13:32:06
Anthony 52 3m 37.283s 31/03/2020 13:32:06
418. Atelophobic 52 3m 37.766s 31/03/2020 21:54:10
JoshOffline 52 3m 37.766s 31/03/2020 21:54:10
Endercrysis 52 3m 37.766s 31/03/2020 21:54:10
TODFATHER 52 3m 37.766s 31/03/2020 21:54:10
422. Døømblædë 52 3m 38.150s 31/03/2020 04:36:26
Magus02 52 3m 38.150s 31/03/2020 04:36:26
Dinosaurs 52 3m 38.150s 31/03/2020 04:36:26
KINGSIU 52 3m 38.150s 31/03/2020 04:36:26
426. Shandy 52 3m 38.316s 30/03/2020 22:03:43
Heryton 52 3m 38.316s 30/03/2020 22:03:43
Danfi 52 3m 38.316s 30/03/2020 22:03:43
Dantazu 52 3m 38.316s 30/03/2020 22:03:43
430. Blaze 52 3m 38.500s 31/03/2020 01:11:13
Raven 52 3m 38.500s 31/03/2020 01:11:13
Mensrea 52 3m 38.500s 31/03/2020 01:11:13
marrcceea 52 3m 38.500s 31/03/2020 01:11:13
434. MistaLC 52 3m 38.533s 30/03/2020 21:05:25
Squishy 52 3m 38.533s 30/03/2020 21:05:25
MasterK 52 3m 38.533s 30/03/2020 21:05:25
paulito 52 3m 38.533s 30/03/2020 21:05:25
438. YepItsMe 52 3m 38.533s 31/03/2020 19:06:03
chayne 52 3m 38.533s 31/03/2020 19:06:03
Ralf 52 3m 38.533s 31/03/2020 19:06:03
OldGit 52 3m 38.533s 31/03/2020 19:06:03
442. talma44 52 3m 38.566s 01/04/2020 02:19:08
MrBlaze 52 3m 38.566s 01/04/2020 02:19:08
Korban 52 3m 38.566s 01/04/2020 02:19:08
Ketro 52 3m 38.566s 01/04/2020 02:19:08
446. TSM2 52 3m 38.799s 01/04/2020 04:09:47
sogalishis 52 3m 38.799s 01/04/2020 04:09:47
M1CH43L 52 3m 38.799s 01/04/2020 04:09:47
nakrul 52 3m 38.799s 01/04/2020 04:09:47
450. Roo88 52 3m 38.933s 31/03/2020 00:34:44
charding67 52 3m 38.933s 31/03/2020 00:34:44
drakos 52 3m 38.933s 31/03/2020 00:34:44
Maraak 52 3m 38.933s 31/03/2020 00:34:44
454. Zwilly 52 3m 38.950s 01/04/2020 02:32:38
ItalianMagic 52 3m 38.950s 01/04/2020 02:32:38
BismoFunyuns 52 3m 38.950s 01/04/2020 02:32:38
swilly02 52 3m 38.950s 01/04/2020 02:32:38
458. kami791 52 3m 39.000s 02/04/2020 03:11:01
Myrtillian 52 3m 39.000s 02/04/2020 03:11:01
BetterDenYou 52 3m 39.000s 02/04/2020 03:11:01
Nothus 52 3m 39.000s 02/04/2020 03:11:01
462. Doomthiakk 52 3m 39.033s 31/03/2020 01:51:55
thefranklin 52 3m 39.033s 31/03/2020 01:51:55
VinhTa 52 3m 39.033s 31/03/2020 01:51:55
Sizzlechest 52 3m 39.033s 31/03/2020 01:51:55
466. Yazi 52 3m 39.383s 30/03/2020 21:58:09
ShadowDragon 52 3m 39.383s 30/03/2020 21:58:09
Nym 52 3m 39.383s 30/03/2020 21:58:09
StormGod 52 3m 39.383s 30/03/2020 21:58:09
470. rufusjwb 52 3m 39.516s 30/03/2020 23:09:54
Ceolacanth 52 3m 39.516s 30/03/2020 23:09:54
Fleermack 52 3m 39.516s 30/03/2020 23:09:54
AdamR 52 3m 39.516s 30/03/2020 23:09:54
474. skyfrost 52 3m 39.666s 31/03/2020 00:45:04
Thalack 52 3m 39.666s 31/03/2020 00:45:04
GesuSunbae 52 3m 39.666s 31/03/2020 00:45:04
FwdFwdHPunch 52 3m 39.666s 31/03/2020 00:45:04
478. swedoMD 52 3m 39.916s 30/03/2020 21:19:35
ChaosSiphon 52 3m 39.916s 30/03/2020 21:19:35
TaNgo 52 3m 39.916s 30/03/2020 21:19:35
Alexander 52 3m 39.916s 30/03/2020 21:19:35
482. Abanyon 52 3m 40.366s 31/03/2020 00:30:38
Jambi 52 3m 40.366s 31/03/2020 00:30:38
mechanikz 52 3m 40.366s 31/03/2020 00:30:38
TrustMads 52 3m 40.366s 31/03/2020 00:30:38
486. Spike 52 3m 40.433s 01/04/2020 01:42:00
Darkn1gh7 52 3m 40.433s 01/04/2020 01:42:00
Broken 52 3m 40.433s 01/04/2020 01:42:00
Kevin 52 3m 40.433s 01/04/2020 01:42:00
490. tripleB 52 3m 40.983s 31/03/2020 03:24:34
NightKnight 52 3m 40.983s 31/03/2020 03:24:34
TokiWartooth 52 3m 40.983s 31/03/2020 03:24:34
NKJr 52 3m 40.983s 31/03/2020 03:24:34
494. Dorzak 52 3m 41.466s 01/04/2020 02:19:33
Kodai 52 3m 41.466s 01/04/2020 02:19:33
BlizzDon 52 3m 41.466s 01/04/2020 02:19:33
Amuro 52 3m 41.466s 01/04/2020 02:19:33
498. Spitfire 52 3m 42.066s 01/04/2020 01:52:58
Alien437 52 3m 42.066s 01/04/2020 01:52:58
tonatiu 52 3m 42.066s 01/04/2020 01:52:58
robmaster59 52 3m 42.066s 01/04/2020 01:52:58
502. Oblivion4now 52 3m 42.100s 31/03/2020 21:22:00
Kronos 52 3m 42.100s 31/03/2020 21:22:00
TheLastHero 52 3m 42.100s 31/03/2020 21:22:00
Soutalgon 52 3m 42.100s 31/03/2020 21:22:00
506. Vaktar 52 3m 42.300s 30/03/2020 22:56:08
NightShade 52 3m 42.300s 30/03/2020 22:56:08
SecretBoss 52 3m 42.300s 30/03/2020 22:56:08
dugboat69 52 3m 42.300s 30/03/2020 22:56:08
510. AnaPaula 52 3m 42.400s 30/03/2020 23:19:56
PauloPaNdA 52 3m 42.400s 30/03/2020 23:19:56
Kalapaucios 52 3m 42.400s 30/03/2020 23:19:56
KurimotoSan 52 3m 42.400s 30/03/2020 23:19:56
514. klux325 52 3m 42.616s 31/03/2020 08:07:13
Griffinj0n3s 52 3m 42.616s 31/03/2020 08:07:13
chellante 52 3m 42.616s 31/03/2020 08:07:13
Ŵingman 52 3m 42.616s 31/03/2020 08:07:13
518. Unknight 52 3m 43.316s 01/04/2020 04:36:52
dudegrace 52 3m 43.316s 01/04/2020 04:36:52
Prazz 52 3m 43.316s 01/04/2020 04:36:52
Nexxyth 52 3m 43.316s 01/04/2020 04:36:52
522. FrickyFresh 52 3m 43.500s 01/04/2020 04:40:56
JLGreen 52 3m 43.500s 01/04/2020 04:40:56
Fit 52 3m 43.500s 01/04/2020 04:40:56
Rav4ceOne 52 3m 43.500s 01/04/2020 04:40:56
526. Tombo007 52 3m 44.033s 01/04/2020 19:24:40
mlynch911 52 3m 44.033s 01/04/2020 19:24:40
Backpack 52 3m 44.033s 01/04/2020 19:24:40
Smokedham 52 3m 44.033s 01/04/2020 19:24:40
530. Ptah 52 3m 44.400s 30/03/2020 23:03:03
IPADave 52 3m 44.400s 30/03/2020 23:03:03
D3excess 52 3m 44.400s 30/03/2020 23:03:03
ratskull99 52 3m 44.400s 30/03/2020 23:03:03
534. Majinboo 52 3m 44.533s 31/03/2020 23:58:55
Daxina84 52 3m 44.533s 31/03/2020 23:58:55
MrSpliff 52 3m 44.533s 31/03/2020 23:58:55
MattMan597 52 3m 44.533s 31/03/2020 23:58:55
538. Fevion 52 3m 44.883s 01/04/2020 04:32:27
Actaeon 52 3m 44.883s 01/04/2020 04:32:27
Anzax 52 3m 44.883s 01/04/2020 04:32:27
Veganox 52 3m 44.883s 01/04/2020 04:32:27
542. Trent 52 3m 45.150s 01/04/2020 03:28:38
ZenMaster 52 3m 45.150s 01/04/2020 03:28:38
Eowynne 52 3m 45.150s 01/04/2020 03:28:38
Sully 52 3m 45.150s 01/04/2020 03:28:38
546. gianca 52 3m 45.150s 01/04/2020 06:18:38
Shigure 52 3m 45.150s 01/04/2020 06:18:38
Kai 52 3m 45.150s 01/04/2020 06:18:38
Zukaritas 52 3m 45.150s 01/04/2020 06:18:38
550. Athena 52 3m 45.516s 31/03/2020 14:04:07
Beatguts 52 3m 45.516s 31/03/2020 14:04:07
nobi 52 3m 45.516s 31/03/2020 14:04:07
HackzorX 52 3m 45.516s 31/03/2020 14:04:07
554. Mori 52 3m 45.516s 02/04/2020 02:50:51
Taz 52 3m 45.516s 02/04/2020 02:50:51
XavierZell 52 3m 45.516s 02/04/2020 02:50:51
RageNSageN 52 3m 45.516s 02/04/2020 02:50:51
558. JiggleBilly 52 3m 47.133s 31/03/2020 02:35:42
princeokhaos 52 3m 47.133s 31/03/2020 02:35:42
mattva 52 3m 47.133s 31/03/2020 02:35:42
Damage 52 3m 47.133s 31/03/2020 02:35:42
562. TOM 52 3m 47.383s 31/03/2020 00:23:44
LordCabbage 52 3m 47.383s 31/03/2020 00:23:44
SvenDamien 52 3m 47.383s 31/03/2020 00:23:44
Tonya 52 3m 47.383s 31/03/2020 00:23:44
566. statechamp 52 3m 47.600s 31/03/2020 05:10:15
ShadowDragon 52 3m 47.600s 31/03/2020 05:10:15
TorbZo420 52 3m 47.600s 31/03/2020 05:10:15
ǶCUCKAZOID 52 3m 47.600s 31/03/2020 05:10:15
570. JustKickMe 52 3m 47.750s 31/03/2020 13:37:44
Ariex 52 3m 47.750s 31/03/2020 13:37:44
神火一阿特拉斯 52 3m 47.750s 31/03/2020 13:37:44
HeDead 52 3m 47.750s 31/03/2020 13:37:44
574. Payolita18 52 3m 48.633s 01/04/2020 03:55:40
fReeMaN 52 3m 48.633s 01/04/2020 03:55:40
Articuno 52 3m 48.633s 01/04/2020 03:55:40
Sendero 52 3m 48.633s 01/04/2020 03:55:40
578. Fox 52 3m 49.183s 01/04/2020 01:34:13
Ryan 52 3m 49.183s 01/04/2020 01:34:13
HayGurl 52 3m 49.183s 01/04/2020 01:34:13
Redundancy 52 3m 49.183s 01/04/2020 01:34:13
582. wenxing 52 3m 49.483s 31/03/2020 05:44:49
service 52 3m 49.483s 31/03/2020 05:44:49
DREADCRAZE 52 3m 49.483s 31/03/2020 05:44:49
Terrence 52 3m 49.483s 31/03/2020 05:44:49
586. lucidus 52 3m 50.033s 31/03/2020 02:51:38
NachoLord 52 3m 50.033s 31/03/2020 02:51:38
Schmedy 52 3m 50.033s 31/03/2020 02:51:38
DarthRevan66 52 3m 50.033s 31/03/2020 02:51:38
590. AlexAguila 52 3m 50.366s 31/03/2020 03:01:24
Ripper 52 3m 50.366s 31/03/2020 03:01:24
Sampwnage 52 3m 50.366s 31/03/2020 03:01:24
Bloodshed 52 3m 50.366s 31/03/2020 03:01:24
594. crackerjack 52 3m 50.549s 31/03/2020 22:25:49
Tatortat 52 3m 50.549s 31/03/2020 22:25:49
FrankLazar 52 3m 50.549s 31/03/2020 22:25:49
Yasuo 52 3m 50.549s 31/03/2020 22:25:49
598. poopidoop 52 3m 50.550s 31/03/2020 03:26:35
glenn 52 3m 50.550s 31/03/2020 03:26:35
SSTeki 52 3m 50.550s 31/03/2020 03:26:35
Murddock 52 3m 50.550s 31/03/2020 03:26:35
602. Masumaka 52 3m 50.649s 31/03/2020 20:59:12
Anoroc 52 3m 50.649s 31/03/2020 20:59:12
Dirionz 52 3m 50.649s 31/03/2020 20:59:12
Brew 52 3m 50.649s 31/03/2020 20:59:12
606. kingchewy 52 3m 50.766s 01/04/2020 05:31:52
CaptnKronic 52 3m 50.766s 01/04/2020 05:31:52
bhitte 52 3m 50.766s 01/04/2020 05:31:52
sangreaa 52 3m 50.766s 01/04/2020 05:31:52
610. Keppol 52 3m 50.916s 01/04/2020 12:11:00
Hothead 52 3m 50.916s 01/04/2020 12:11:00
tommyb90 52 3m 50.916s 01/04/2020 12:11:00
ShadowFiend 52 3m 50.916s 01/04/2020 12:11:00
614. keez708 52 3m 51.033s 02/04/2020 02:46:19
azwheelz 52 3m 51.033s 02/04/2020 02:46:19
YatsukeIV 52 3m 51.033s 02/04/2020 02:46:19
BanPanGie 52 3m 51.033s 02/04/2020 02:46:19
618. lego 52 3m 51.633s 01/04/2020 15:20:50
Deathie 52 3m 51.633s 01/04/2020 15:20:50
alfo 52 3m 51.633s 01/04/2020 15:20:50
等待只有一個人 52 3m 51.633s 01/04/2020 15:20:50
622. Bill 52 3m 51.816s 01/04/2020 21:10:44
Fawlkes 52 3m 51.816s 01/04/2020 21:10:44
Dieforme 52 3m 51.816s 01/04/2020 21:10:44
Emptysea1086 52 3m 51.816s 01/04/2020 21:10:44
626. 達斯汀 52 3m 52.033s 01/04/2020 15:03:26
上帝之子 52 3m 52.033s 01/04/2020 15:03:26
DAB 52 3m 52.033s 01/04/2020 15:03:26
chuanshuo 52 3m 52.033s 01/04/2020 15:03:26
630. gunner12 52 3m 52.216s 02/04/2020 00:43:47
Pillze 52 3m 52.216s 02/04/2020 00:43:47
Pallis 52 3m 52.216s 02/04/2020 00:43:47
633. Thaelna 52 3m 52.249s 31/03/2020 19:37:39
DarkFabelz07 52 3m 52.249s 31/03/2020 19:37:39
Sarevok 52 3m 52.249s 31/03/2020 19:37:39
Netnox 52 3m 52.249s 31/03/2020 19:37:39
637. Maverick 52 3m 52.266s 31/03/2020 04:02:26
SmokeyBear 52 3m 52.266s 31/03/2020 04:02:26
Tyberious 52 3m 52.266s 31/03/2020 04:02:26
xzader 52 3m 52.266s 31/03/2020 04:02:26
641. Senpaw 52 3m 52.483s 31/03/2020 19:58:08
TheGrim 52 3m 52.483s 31/03/2020 19:58:08
Dchill 52 3m 52.483s 31/03/2020 19:58:08
tav2988 52 3m 52.483s 31/03/2020 19:58:08
645. CyberDoc 52 3m 52.750s 30/03/2020 22:29:42
DaQuickDeath 52 3m 52.750s 30/03/2020 22:29:42
Elgin 52 3m 52.750s 30/03/2020 22:29:42
648. James 52 3m 53.250s 31/03/2020 03:57:26
Scarpolis 52 3m 53.250s 31/03/2020 03:57:26
Covenant 52 3m 53.250s 31/03/2020 03:57:26
Atila 52 3m 53.250s 31/03/2020 03:57:26
652. RickestRick 52 3m 53.300s 31/03/2020 03:50:48
Piecemaker 52 3m 53.300s 31/03/2020 03:50:48
DevilSquirel 52 3m 53.300s 31/03/2020 03:50:48
Smeggy 52 3m 53.300s 31/03/2020 03:50:48
656. Sinister 52 3m 53.350s 01/04/2020 02:41:04
MERITUS 52 3m 53.350s 01/04/2020 02:41:04
GaminGrammy 52 3m 53.350s 01/04/2020 02:41:04
Edmondefreud 52 3m 53.350s 01/04/2020 02:41:04
660. Ryvius 52 3m 53.633s 31/03/2020 01:28:16
kamakazie 52 3m 53.633s 31/03/2020 01:28:16
Archer 52 3m 53.633s 31/03/2020 01:28:16
Magicgoddess 52 3m 53.633s 31/03/2020 01:28:16
664. Ladyzman 52 3m 53.666s 31/03/2020 11:02:07
Namazzip 52 3m 53.666s 31/03/2020 11:02:07
NewMonday 52 3m 53.666s 31/03/2020 11:02:07
Levantine 52 3m 53.666s 31/03/2020 11:02:07
668. Noremak 52 3m 53.933s 01/04/2020 04:57:04
Fragility 52 3m 53.933s 01/04/2020 04:57:04
Jey 52 3m 53.933s 01/04/2020 04:57:04
ZeroTani 52 3m 53.933s 01/04/2020 04:57:04
672. SurgeonSurgo 52 3m 54.283s 31/03/2020 06:22:47
Sasquachkid 52 3m 54.283s 31/03/2020 06:22:47
Garmal 52 3m 54.283s 31/03/2020 06:22:47
MistahZee 52 3m 54.283s 31/03/2020 06:22:47
676. FKLINGER 52 3m 55.216s 31/03/2020 01:27:35
chinofox 52 3m 55.216s 31/03/2020 01:27:35
TRJoKeR 52 3m 55.216s 31/03/2020 01:27:35
sKoRpIoN 52 3m 55.216s 31/03/2020 01:27:35
680. Dipshiz 52 3m 55.533s 01/04/2020 02:26:33
KimJungRice 52 3m 55.533s 01/04/2020 02:26:33
Dan 52 3m 55.533s 01/04/2020 02:26:33
Prozack4811 52 3m 55.533s 01/04/2020 02:26:33
684. Techno 52 3m 55.750s 30/03/2020 22:53:33
twinrazer33 52 3m 55.750s 30/03/2020 22:53:33
MrChilao 52 3m 55.750s 30/03/2020 22:53:33
SilverFox 52 3m 55.750s 30/03/2020 22:53:33
688. Atrox 52 3m 56.249s 30/03/2020 21:55:56
HexHead 52 3m 56.249s 30/03/2020 21:55:56
CryingSoul 52 3m 56.249s 30/03/2020 21:55:56
Arthur 52 3m 56.249s 30/03/2020 21:55:56
692. TooMuchStres 52 3m 56.533s 31/03/2020 08:16:03
Maglunog 52 3m 56.533s 31/03/2020 08:16:03
Havack 52 3m 56.533s 31/03/2020 08:16:03
BurnedRunner 52 3m 56.533s 31/03/2020 08:16:03
696. Beowolf1596 52 3m 56.616s 31/03/2020 20:38:03
beginner 52 3m 56.616s 31/03/2020 20:38:03
DireRaven 52 3m 56.616s 31/03/2020 20:38:03
Lordaerons3 52 3m 56.616s 31/03/2020 20:38:03
700. Redfox 52 3m 56.633s 31/03/2020 20:01:58
Killshott616 52 3m 56.633s 31/03/2020 20:01:58
xXpiricoteXx 52 3m 56.633s 31/03/2020 20:01:58
GSHiredGun 52 3m 56.633s 31/03/2020 20:01:58
704. skric1ee 52 3m 56.849s 30/03/2020 21:45:40
GODMYTH 52 3m 56.849s 30/03/2020 21:45:40
Applecats 52 3m 56.849s 30/03/2020 21:45:40
Mattytatts91 52 3m 56.849s 30/03/2020 21:45:40
708. ThrillBillie 52 3m 56.916s 31/03/2020 14:24:18
milier 52 3m 56.916s 31/03/2020 14:24:18
Jasper 52 3m 56.916s 31/03/2020 14:24:18
franbern 52 3m 56.916s 31/03/2020 14:24:18
712. Galdmake 52 3m 57.266s 31/03/2020 03:16:22
CalypsoShift 52 3m 57.266s 31/03/2020 03:16:22
mungnung 52 3m 57.266s 31/03/2020 03:16:22
Helbender 52 3m 57.266s 31/03/2020 03:16:22
716. LordShindo 52 3m 57.333s 31/03/2020 08:07:35
Azazel 52 3m 57.333s 31/03/2020 08:07:35
jadedfelix 52 3m 57.333s 31/03/2020 08:07:35
719. MasterNinja 52 3m 57.533s 30/03/2020 22:23:27
Gaberade 52 3m 57.533s 30/03/2020 22:23:27
Elproblemo 52 3m 57.533s 30/03/2020 22:23:27
Bangs 52 3m 57.533s 30/03/2020 22:23:27
723. Sekenor 52 3m 57.633s 02/04/2020 02:21:32
Lastcall 52 3m 57.633s 02/04/2020 02:21:32
ROCKnONEsock 52 3m 57.633s 02/04/2020 02:21:32
Viking 52 3m 57.633s 02/04/2020 02:21:32
727. FineAnimeFox 52 3m 58.049s 31/03/2020 04:00:35
Veinmetal 52 3m 58.049s 31/03/2020 04:00:35
KazerCraze23 52 3m 58.049s 31/03/2020 04:00:35
Valatie 52 3m 58.049s 31/03/2020 04:00:35
731. DukeNukem 52 3m 58.500s 02/04/2020 02:44:58
Baskin 52 3m 58.500s 02/04/2020 02:44:58
Shrio 52 3m 58.500s 02/04/2020 02:44:58
Casibal 52 3m 58.500s 02/04/2020 02:44:58
735. cheferic1966 52 3m 58.883s 31/03/2020 17:39:55
Ihnlight 52 3m 58.883s 31/03/2020 17:39:55
Mozart 52 3m 58.883s 31/03/2020 17:39:55
Narwhale 52 3m 58.883s 31/03/2020 17:39:55
739. Jillie 52 3m 59.033s 01/04/2020 22:49:59
Kirstie 52 3m 59.033s 01/04/2020 22:49:59
skoal 52 3m 59.033s 01/04/2020 22:49:59
SweEtSaUcE 52 3m 59.033s 01/04/2020 22:49:59
743. Eremus 52 3m 59.183s 01/04/2020 00:06:39
ShayLynia 52 3m 59.183s 01/04/2020 00:06:39
Moita 52 3m 59.183s 01/04/2020 00:06:39
GrîmRëåpër 52 3m 59.183s 01/04/2020 00:06:39
747. Malagant 52 4m 0.000s 31/03/2020 04:16:38
DerSolStealr 52 4m 0.000s 31/03/2020 04:16:38
Karix3k 52 4m 0.000s 31/03/2020 04:16:38
GingaNinja 52 4m 0.000s 31/03/2020 04:16:38
751. ELCAMIER 52 4m 0.016s 31/03/2020 22:58:06
BLehmeier 52 4m 0.016s 31/03/2020 22:58:06
Flexor 52 4m 0.016s 31/03/2020 22:58:06
Jabronis 52 4m 0.016s 31/03/2020 22:58:06
755. Nuubsauce 52 4m 0.199s 30/03/2020 21:17:25
Ronnyboy1982 52 4m 0.199s 30/03/2020 21:17:25
Napes 52 4m 0.199s 30/03/2020 21:17:25
Fido 52 4m 0.199s 30/03/2020 21:17:25
759. Armofgeddon 52 4m 0.266s 30/03/2020 23:55:12
Phorceful 52 4m 0.266s 30/03/2020 23:55:12
LordWarlock 52 4m 0.266s 30/03/2020 23:55:12
Entropian 52 4m 0.266s 30/03/2020 23:55:12
763. Jerhaad 52 4m 0.516s 31/03/2020 22:25:16
JInx 52 4m 0.516s 31/03/2020 22:25:16
Havick 52 4m 0.516s 31/03/2020 22:25:16
Nematode 52 4m 0.516s 31/03/2020 22:25:16
767. MrBarnes 52 4m 0.700s 01/04/2020 22:55:08
aargan 52 4m 0.700s 01/04/2020 22:55:08
Wilkywilkk 52 4m 0.700s 01/04/2020 22:55:08
killerofdawn 52 4m 0.700s 01/04/2020 22:55:08
771. CactusCooler 52 4m 1.350s 30/03/2020 21:38:55
Silkcentaur 52 4m 1.350s 30/03/2020 21:38:55
PointnShoot 52 4m 1.350s 30/03/2020 21:38:55
KingExtinct 52 4m 1.350s 30/03/2020 21:38:55
775. CqMuksid 52 4m 1.483s 30/03/2020 23:18:31
Chatter 52 4m 1.483s 30/03/2020 23:18:31
Orcinus 52 4m 1.483s 30/03/2020 23:18:31
SwankyTiger 52 4m 1.483s 30/03/2020 23:18:31
779. DrMartial 52 4m 1.916s 31/03/2020 14:57:54
Sumonage 52 4m 1.916s 31/03/2020 14:57:54
Anonym 52 4m 1.916s 31/03/2020 14:57:54
SuperNInja 52 4m 1.916s 31/03/2020 14:57:54
783. Sordee 52 4m 1.950s 01/04/2020 06:45:06
Mrbman94 52 4m 1.950s 01/04/2020 06:45:06
Rieku 52 4m 1.950s 01/04/2020 06:45:06
lacesse 52 4m 1.950s 01/04/2020 06:45:06
787. Mephisto 52 4m 2.316s 30/03/2020 23:52:04
Angelwing 52 4m 2.316s 30/03/2020 23:52:04
lautregars 52 4m 2.316s 30/03/2020 23:52:04
790. Bigmack6699 52 4m 2.716s 31/03/2020 01:33:56
Gtx 52 4m 2.716s 31/03/2020 01:33:56
Ruunic 52 4m 2.716s 31/03/2020 01:33:56
SadAbaddon 52 4m 2.716s 31/03/2020 01:33:56
794. Gullibull 52 4m 2.899s 31/03/2020 03:24:22
BloodPride 52 4m 2.899s 31/03/2020 03:24:22
P80 52 4m 2.899s 31/03/2020 03:24:22
Eriksuzuki20 52 4m 2.899s 31/03/2020 03:24:22
798. WayTooFlashy 52 4m 3.066s 31/03/2020 00:22:51
TylerNine 52 4m 3.066s 31/03/2020 00:22:51
ixildor 52 4m 3.066s 31/03/2020 00:22:51
Revannight 52 4m 3.066s 31/03/2020 00:22:51
802. LadyKachiko 52 4m 3.083s 31/03/2020 03:14:54
AesSedia 52 4m 3.083s 31/03/2020 03:14:54
tekkazerox 52 4m 3.083s 31/03/2020 03:14:54
TekkZero 52 4m 3.083s 31/03/2020 03:14:54
806. 殺意騎士 52 4m 3.466s 01/04/2020 15:09:43
DreamChaycer 52 4m 3.466s 01/04/2020 15:09:43
Aisongi 52 4m 3.466s 01/04/2020 15:09:43
Malla 52 4m 3.466s 01/04/2020 15:09:43
810. TrashPanduh 52 4m 4.116s 01/04/2020 13:01:45
bluebay 52 4m 4.116s 01/04/2020 13:01:45
cwpick 52 4m 4.116s 01/04/2020 13:01:45
Zenato 52 4m 4.116s 01/04/2020 13:01:45
814. Knapps 52 4m 4.366s 31/03/2020 02:55:54
Ulquiorra 52 4m 4.366s 31/03/2020 02:55:54
Wezol 52 4m 4.366s 31/03/2020 02:55:54
LordofTitan 52 4m 4.366s 31/03/2020 02:55:54
818. Phleg 52 4m 4.750s 31/03/2020 03:16:57
Manano 52 4m 4.750s 31/03/2020 03:16:57
YetiPoet 52 4m 4.750s 31/03/2020 03:16:57
bedroom 52 4m 4.750s 31/03/2020 03:16:57
822. ga5assassin 52 4m 4.866s 31/03/2020 02:50:30
Chooey99 52 4m 4.866s 31/03/2020 02:50:30
Connok 52 4m 4.866s 31/03/2020 02:50:30
Demigod 52 4m 4.866s 31/03/2020 02:50:30
826. ClementHuang 52 4m 5.000s 30/03/2020 21:55:04
chunju 52 4m 5.000s 30/03/2020 21:55:04
PSTRICKL 52 4m 5.000s 30/03/2020 21:55:04
Benzaster 52 4m 5.000s 30/03/2020 21:55:04
830. Monkeywoman 52 4m 5.783s 31/03/2020 03:36:01
Actionape 52 4m 5.783s 31/03/2020 03:36:01
Durtybirds 52 4m 5.783s 31/03/2020 03:36:01
DIABLO4545 52 4m 5.783s 31/03/2020 03:36:01
834. Rasec 52 4m 6.200s 30/03/2020 23:10:10
Knight 52 4m 6.200s 30/03/2020 23:10:10
PhoenixBlade 52 4m 6.200s 30/03/2020 23:10:10
TheLendz 52 4m 6.200s 30/03/2020 23:10:10
838. Robdoggierob 52 4m 6.716s 31/03/2020 18:04:29
TYler777 52 4m 6.716s 31/03/2020 18:04:29
Dongdi 52 4m 6.716s 31/03/2020 18:04:29
doctorial 52 4m 6.716s 31/03/2020 18:04:29
842. adriando 52 4m 6.916s 31/03/2020 18:26:57
DrBOOMSTIK 52 4m 6.916s 31/03/2020 18:26:57
Abunairyu 52 4m 6.916s 31/03/2020 18:26:57
RegalBane 52 4m 6.916s 31/03/2020 18:26:57
846. HiddenSquid 52 4m 7.583s 31/03/2020 01:29:31
Bunnization 52 4m 7.583s 31/03/2020 01:29:31
Wolv 52 4m 7.583s 31/03/2020 01:29:31
Taroith 52 4m 7.583s 31/03/2020 01:29:31
850. WoundedCow 52 4m 7.600s 30/03/2020 23:11:46
Battleaxe 52 4m 7.600s 30/03/2020 23:11:46
Screwyluie 52 4m 7.600s 30/03/2020 23:11:46
weden4444444 52 4m 7.600s 30/03/2020 23:11:46
854. Atlas 52 4m 8.383s 31/03/2020 20:18:07
Dimitri22 52 4m 8.383s 31/03/2020 20:18:07
Liaedric 52 4m 8.383s 31/03/2020 20:18:07
Sickkid09 52 4m 8.383s 31/03/2020 20:18:07
858. MushyDonut 52 4m 8.433s 31/03/2020 04:33:04
Pwnage362 52 4m 8.433s 31/03/2020 04:33:04
YoungArk 52 4m 8.433s 31/03/2020 04:33:04
DarkKnight 52 4m 8.433s 31/03/2020 04:33:04
862. TriteSpin 52 4m 8.466s 31/03/2020 17:02:58
magicman4141 52 4m 8.466s 31/03/2020 17:02:58
beefy 52 4m 8.466s 31/03/2020 17:02:58
fdefl 52 4m 8.466s 31/03/2020 17:02:58
866. Jaypee 52 4m 8.483s 01/04/2020 01:01:23
Coyote 52 4m 8.483s 01/04/2020 01:01:23
Harrod 52 4m 8.483s 01/04/2020 01:01:23
Faelira 52 4m 8.483s 01/04/2020 01:01:23
870. luigi3746 52 4m 8.516s 31/03/2020 16:25:29
Ragna 52 4m 8.516s 31/03/2020 16:25:29
Zurok 52 4m 8.516s 31/03/2020 16:25:29
rodrigo 52 4m 8.516s 31/03/2020 16:25:29
874. Rawdawg 52 4m 8.783s 31/03/2020 21:07:43
ThauSS 52 4m 8.783s 31/03/2020 21:07:43
CesarLee 52 4m 8.783s 31/03/2020 21:07:43
877. iShingon 52 4m 9.033s 02/04/2020 02:50:33
PurpleJesus 52 4m 9.033s 02/04/2020 02:50:33
ihaveashoe 52 4m 9.033s 02/04/2020 02:50:33
Waterb0y 52 4m 9.033s 02/04/2020 02:50:33
881. Derven 52 4m 9.283s 30/03/2020 23:02:30
BadWolf 52 4m 9.283s 30/03/2020 23:02:30
CooperFaith 52 4m 9.283s 30/03/2020 23:02:30
JediRinzler 52 4m 9.283s 30/03/2020 23:02:30
885. JeffT 52 4m 9.399s 31/03/2020 02:20:28
SheistyAsian 52 4m 9.399s 31/03/2020 02:20:28
Nobleknight 52 4m 9.399s 31/03/2020 02:20:28
rfeist 52 4m 9.399s 31/03/2020 02:20:28
889. Kirok 52 4m 9.766s 30/03/2020 23:17:49
Atlantis 52 4m 9.766s 30/03/2020 23:17:49
Cloudy 52 4m 9.766s 30/03/2020 23:17:49
JoeyWD 52 4m 9.766s 30/03/2020 23:17:49
893. Breniack 52 4m 9.783s 31/03/2020 04:02:24
SpartacusGT 52 4m 9.783s 31/03/2020 04:02:24
Hellscream 52 4m 9.783s 31/03/2020 04:02:24
Breniack 52 4m 9.783s 31/03/2020 04:02:24
897. Josan 52 4m 10.300s 30/03/2020 21:12:44
herb 52 4m 10.300s 30/03/2020 21:12:44
Nasoj 52 4m 10.300s 30/03/2020 21:12:44
Samael 52 4m 10.300s 30/03/2020 21:12:44
901. Nauli 52 4m 10.333s 01/04/2020 22:37:57
Koey 52 4m 10.333s 01/04/2020 22:37:57
SheBear 52 4m 10.333s 01/04/2020 22:37:57
BudLite 52 4m 10.333s 01/04/2020 22:37:57
905. Crazeroth 52 4m 10.666s 31/03/2020 23:17:44
Tahjn 52 4m 10.666s 31/03/2020 23:17:44
Notional 52 4m 10.666s 31/03/2020 23:17:44
DoulosTheos 52 4m 10.666s 31/03/2020 23:17:44
909. HandBanana 52 4m 11.250s 31/03/2020 21:31:57
Patria 52 4m 11.250s 31/03/2020 21:31:57
Eohuo 52 4m 11.250s 31/03/2020 21:31:57
BergerFett 52 4m 11.250s 31/03/2020 21:31:57
913. Xplode 52 4m 11.483s 30/03/2020 22:47:06
Haurun 52 4m 11.483s 30/03/2020 22:47:06
Nimey 52 4m 11.483s 30/03/2020 22:47:06
TyphoonSD 52 4m 11.483s 30/03/2020 22:47:06
917. OGmudbone22 52 4m 12.033s 01/04/2020 00:33:00
bigcarrs 52 4m 12.033s 01/04/2020 00:33:00
SharpKnife 52 4m 12.033s 01/04/2020 00:33:00
die4fire 52 4m 12.033s 01/04/2020 00:33:00
921. Thanh 52 4m 12.050s 31/03/2020 02:04:31
ToMaToMoChA 52 4m 12.050s 31/03/2020 02:04:31
DasRedFox 52 4m 12.050s 31/03/2020 02:04:31
Bluepig520 52 4m 12.050s 31/03/2020 02:04:31
925. GhostDragon 52 4m 12.433s 02/04/2020 02:45:11
Semage 52 4m 12.433s 02/04/2020 02:45:11
Pitts 52 4m 12.433s 02/04/2020 02:45:11
928. Kai 52 4m 12.733s 31/03/2020 00:18:17
Shant 52 4m 12.733s 31/03/2020 00:18:17
Tayne 52 4m 12.733s 31/03/2020 00:18:17
ShadowSlayer 52 4m 12.733s 31/03/2020 00:18:17
932. lucky13 52 4m 13.083s 31/03/2020 01:42:10
JondubeQC 52 4m 13.083s 31/03/2020 01:42:10
Sdraco 52 4m 13.083s 31/03/2020 01:42:10
Bakou 52 4m 13.083s 31/03/2020 01:42:10
936. brandon 52 4m 13.449s 31/03/2020 22:07:57
ellema 52 4m 13.449s 31/03/2020 22:07:57
FrozenEmbers 52 4m 13.449s 31/03/2020 22:07:57
Trueno 52 4m 13.449s 31/03/2020 22:07:57
940. ArcGalion 52 4m 13.899s 30/03/2020 23:24:06
Drock 52 4m 13.899s 30/03/2020 23:24:06
Petitesouris 52 4m 13.899s 30/03/2020 23:24:06
943. AidanMak 52 4m 14.733s 31/03/2020 03:13:38
Valcanos 52 4m 14.733s 31/03/2020 03:13:38
GotYouToRead 52 4m 14.733s 31/03/2020 03:13:38
Bauss 52 4m 14.733s 31/03/2020 03:13:38
947. warlab 52 4m 14.783s 31/03/2020 01:58:20
scarfox 52 4m 14.783s 31/03/2020 01:58:20
rhcpdabest 52 4m 14.783s 31/03/2020 01:58:20
950. Gpaw62779 52 4m 14.849s 02/04/2020 02:26:10
JariDK 52 4m 14.849s 02/04/2020 02:26:10
Havicz 52 4m 14.849s 02/04/2020 02:26:10
953. roger07 52 4m 15.166s 01/04/2020 19:48:43
Delphyne 52 4m 15.166s 01/04/2020 19:48:43
Elannablue 52 4m 15.166s 01/04/2020 19:48:43
Maryred 52 4m 15.166s 01/04/2020 19:48:43
957. kissmyarzh 52 4m 15.516s 31/03/2020 15:20:52
Pyrilen 52 4m 15.516s 31/03/2020 15:20:52
trainer14 52 4m 15.516s 31/03/2020 15:20:52
Necrobarack 52 4m 15.516s 31/03/2020 15:20:52
961. Rah 52 4m 15.866s 31/03/2020 22:01:08
WES 52 4m 15.866s 31/03/2020 22:01:08
tarocki 52 4m 15.866s 31/03/2020 22:01:08
THURNER1222 52 4m 15.866s 31/03/2020 22:01:08
965. HerroBro 52 4m 15.883s 31/03/2020 04:07:29
Schmeckle 52 4m 15.883s 31/03/2020 04:07:29
Ninjaking 52 4m 15.883s 31/03/2020 04:07:29
TheLintKing 52 4m 15.883s 31/03/2020 04:07:29
969. Mac1102 52 4m 16.466s 31/03/2020 20:21:11
DongerLord 52 4m 16.466s 31/03/2020 20:21:11
SkyWalkerChi 52 4m 16.466s 31/03/2020 20:21:11
Javoruko 52 4m 16.466s 31/03/2020 20:21:11
973. Elfriede 52 4m 17.416s 01/04/2020 01:58:21
Sumyungho 52 4m 17.416s 01/04/2020 01:58:21
Oribis 52 4m 17.416s 01/04/2020 01:58:21
Tenkz 52 4m 17.416s 01/04/2020 01:58:21
977. MisakaMikoto 52 4m 17.649s 31/03/2020 19:10:18
Lewis666 52 4m 17.649s 31/03/2020 19:10:18
HiImYimo 52 4m 17.649s 31/03/2020 19:10:18
wookiee 52 4m 17.649s 31/03/2020 19:10:18
981. xxKoroshiya1 52 4m 17.833s 01/04/2020 01:11:30
Itadar 52 4m 17.833s 01/04/2020 01:11:30
bobo2828 52 4m 17.833s 01/04/2020 01:11:30
Alekianr 52 4m 17.833s 01/04/2020 01:11:30
985. Neotran 52 4m 18.283s 31/03/2020 22:18:57
stormpriest 52 4m 18.283s 31/03/2020 22:18:57
GandalfGrey 52 4m 18.283s 31/03/2020 22:18:57
Izanagi666 52 4m 18.283s 31/03/2020 22:18:57
989. JDB3987 52 4m 18.483s 30/03/2020 22:19:08
HeBear 52 4m 18.483s 30/03/2020 22:19:08
Zai 52 4m 18.483s 30/03/2020 22:19:08
BaneOfDiablo 52 4m 18.483s 30/03/2020 22:19:08
993. ReddHeart 52 4m 18.483s 01/04/2020 01:12:02
Dhrel 52 4m 18.483s 01/04/2020 01:12:02
gorefang 52 4m 18.483s 01/04/2020 01:12:02
Artamiss 52 4m 18.483s 01/04/2020 01:12:02
997. Dranem 52 4m 18.533s 30/03/2020 21:10:37
Blazing 52 4m 18.533s 30/03/2020 21:10:37
xelor 52 4m 18.533s 30/03/2020 21:10:37
jwubs 52 4m 18.533s 30/03/2020 21:10:37
Exibindo 1150 de 1.000 resultados